STARLINK-2344 (47885 NORAD) Tracking and Keplerian Element Data

This shows tracking and keplerian element data for the satellite.

Feedback or suggestion? Click here.




ElementValue
Catalog47885
NameSTARLINK-2344
Epoch Orbit195
Epoch Day173.91668981
Epoch Year2021
RAAN91.4664
Inclination53.0497
Eccentricity0.000139
Argument of Perigee78.0029
Mean Anonmoly351.3786
Mean Motion15.06387949
Decay Rate0.00010504
L11 47885U 21021AB 21173.91668981 .00010504 00000-0 72324-3 0 9991
L22 47885 53.0497 91.4664 0001390 78.0029 351.3786 15.06387949 1951

Live tracking and technical data element details for STARLINK-2344 (NORAD 47885). STARLINK-2344 can be tracked NOW for your location showing map with azimuth and elevation plus other details from your city location.

Track the satellite on the map from your city or location and see movement details for azimuth, elevation, latitude, longitude, range, height, and movement on the map or in text.







IsCatalogInMostPopularTable: catalog: 47885, numindb: 45
Update: records affected: 1



GetName: 47885 STARLINK-2344

Hit Count: updated at: Thu, 24 Jun 2021 02:51:07 GMT